Owen Roberts, Cayman Islands

2:12 PM EST on June 23, 2017 (GMT -0500)
Roberts International

Weather History for MWCR - December, 2012

Change the Weather History Date:

Sunday, December 9, 2012

  Actual Average Record
Temperature  
Mean Temperature 80 °F -  
Max Temperature 85 °F 81 °F 87 °F (1997)
Min Temperature 76 °F 74 °F 64 °F (2010)
Cooling Degree Days 16    
Growing Degree Days 30 (Base 50)    
Moisture  
Dew Point 78 °F    
Average Humidity 92    
Maximum Humidity 100    
Minimum Humidity 79    
Precipitation  
Precipitation 0.02 in - - ()
Sea Level Pressure  
Sea Level Pressure 29.97 in    
Wind  
Wind Speed 5 mph ()    
Max Wind Speed 10 mph    
Max Gust Speed -    
Visibility 6.0 miles    
Events Rain    
Averages and records for this station are not official NWS values.
T = Trace of Precipitation, MM = Missing Value Source: Averaged Metar Reports

Daily Weather History Graph

Daily Weather History Graph

Search for Another Location

Airport or City:

Trip Planner

Search our weather history database for the weather conditions in past years. The results will help you decide how hot, cold, wet, or windy it might be!

Date:

Astronomy

Dec. 09, 2012 Rise Set
Actual Time 6:48 AM EST 5:48 PM EST
Civil Twilight 6:24 AM EST 6:11 PM EST
Nautical Twilight 5:56 AM EST 6:39 PM EST
Astronomical Twilight 5:29 AM EST 7:06 PM EST
Moon 2:43 AM EST (12/9) 2:33 PM EST (12/9)
Length of Visible Light 11h 47m
Length of Day
10h 59m
Waning Crescent, 19% of the Moon is Illuminated
Dec 9
Waning Crescent
Dec 13
New
Dec 20
First Quarter
Dec 28
Full
Jan 4
Last Quarter

Hourly Weather History & Observations

Time (EST) Temp. Heat Index Dew Point Humidity Pressure Visibility Wind Dir Wind Speed Gust Speed Precip Events Conditions
6:00 AM 77.0 °F - 77.0 °F 100% 29.95 in 6.2 mi East 3.5 mph - N/A   Scattered Clouds
7:00 AM 76 °F - 76 °F 100% 29.98 in 6 mi 2.3 mph - -  
7:00 AM 77.0 °F - 77.0 °F 100% 29.98 in 6.2 mi Variable 2.3 mph - N/A   Scattered Clouds
8:00 AM 78.8 °F - 77.0 °F 94% 29.98 in 6.2 mi East 3.5 mph - N/A   Mostly Cloudy
9:00 AM 80.6 °F 88.1 °F 78.8 °F 94% 30.01 in 6.2 mi East 4.6 mph - N/A   Mostly Cloudy
10:00 AM 82.4 °F 92.4 °F 78.8 °F 89% 30.01 in 6.2 mi ENE 5.8 mph - N/A   Mostly Cloudy
11:00 AM 82.4 °F 92.4 °F 78.8 °F 89% 30.01 in 4.3 mi East 6.9 mph - N/A Rain Light Rain Showers
12:00 PM 84.2 °F 96.1 °F 78.8 °F 84% 29.98 in 5.6 mi ESE 8.1 mph - N/A   Scattered Clouds
1:00 PM 83 °F - 79 °F 85% 29.98 in 6 mi ESE 8.1 mph - -   Partly Cloudy
1:00 PM 82.4 °F 92.4 °F 78.8 °F 89% 29.98 in 6.2 mi ESE 8.1 mph - N/A   Mostly Cloudy
2:00 PM 84.2 °F 94.1 °F 77.0 °F 79% 29.95 in 6.2 mi East 10.4 mph - N/A   Mostly Cloudy
3:00 PM 82.4 °F 92.4 °F 78.8 °F 89% 29.92 in 6.2 mi East 10.4 mph - N/A   Scattered Clouds
4:00 PM 80.6 °F 88.1 °F 78.8 °F 94% 29.92 in 6.2 mi East 5.8 mph - N/A   Partly Cloudy
5:00 PM 82.4 °F 92.4 °F 78.8 °F 89% 29.92 in 6.2 mi East 10.4 mph - N/A   Mostly Cloudy
6:00 PM 80.6 °F 88.1 °F 78.8 °F 94% 29.95 in 6.2 mi East 5.8 mph - N/A   Scattered Clouds
7:00 PM 80 °F - 78 °F 93% 29.96 in 6 mi ESE 4.6 mph - -   Partly Cloudy
7:00 PM 80.6 °F 88.1 °F 78.8 °F 94% 29.95 in 6.2 mi ESE 4.6 mph - N/A   Mostly Cloudy
8:00 PM 80.6 °F 88.1 °F 78.8 °F 94% 29.95 in 6.2 mi ESE 8.1 mph - N/A   Mostly Cloudy
9:00 PM 80.6 °F 88.1 °F 78.8 °F 94% 29.98 in 6.2 mi East 4.6 mph - N/A   Mostly Cloudy
10:00 PM 78.8 °F - 78.8 °F 100% 30.01 in 6.2 mi East 4.6 mph - N/A   Scattered Clouds